Time,TemperatureF,DewpointF,PressureIn,WindDirection,WindDirectionDegrees,WindSpeedMPH,WindSpeedGustMPH,Humidity,HourlyPrecipIn,Conditions,Clouds,dailyrainin,SoftwareType,DateUTC
2013-09-27 00:04:00,71.0,54.0,29.99,SE,138,0.0,6.0,54,0.00,,,0.00,,2013-09-27 05:04:00,
2013-09-27 00:13:00,71.0,54.0,29.99,SE,138,0.0,6.0,54,0.00,,,0.00,,2013-09-27 05:13:00,
2013-09-27 00:23:00,70.0,54.0,29.99,SE,139,0.0,2.0,56,0.00,,,0.00,,2013-09-27 05:23:00,
2013-09-27 00:34:00,70.0,54.0,29.99,SE,139,0.0,2.0,56,0.00,,,0.00,,2013-09-27 05:34:00,
2013-09-27 00:52:00,70.0,53.0,29.99,SW,217,1.0,7.0,54,0.00,,,0.00,,2013-09-27 05:52:00,
2013-09-27 01:02:00,70.0,53.0,29.99,SW,217,1.0,7.0,54,0.00,,,0.00,,2013-09-27 06:02:00,
2013-09-27 01:11:00,70.0,53.0,29.99,SW,217,1.0,7.0,54,0.00,,,0.00,,2013-09-27 06:11:00,
2013-09-27 01:22:00,70.0,53.0,29.98,West,273,3.0,6.0,55,0.00,,,0.00,,2013-09-27 06:22:00,
2013-09-27 01:32:00,70.0,53.0,29.98,West,273,3.0,6.0,55,0.00,,,0.00,,2013-09-27 06:32:00,
2013-09-27 01:52:00,69.0,53.0,29.98,WNW,290,3.0,5.0,57,0.00,,,0.00,,2013-09-27 06:52:00,
2013-09-27 02:02:00,69.0,53.0,29.98,WNW,290,3.0,5.0,57,0.00,,,0.00,,2013-09-27 07:02:00,
2013-09-27 02:22:00,70.0,53.0,29.98,West,261,2.0,6.0,54,0.00,,,0.00,,2013-09-27 07:22:00,
2013-09-27 02:32:00,70.0,53.0,29.98,West,261,2.0,6.0,54,0.00,,,0.00,,2013-09-27 07:32:00,
2013-09-27 02:53:00,70.0,54.0,29.98,South,190,3.0,9.0,57,0.00,,,0.00,,2013-09-27 07:53:00,
2013-09-27 03:02:00,70.0,54.0,29.98,South,190,3.0,9.0,57,0.00,,,0.00,,2013-09-27 08:02:00,
2013-09-27 03:22:00,69.0,53.0,29.98,NW,319,0.0,1.0,57,0.00,,,0.00,,2013-09-27 08:22:00,
2013-09-27 03:32:00,69.0,53.0,29.98,NW,319,0.0,1.0,57,0.00,,,0.00,,2013-09-27 08:32:00,
2013-09-27 03:42:00,69.0,53.0,29.98,NW,319,0.0,1.0,57,0.00,,,0.00,,2013-09-27 08:42:00,
2013-09-27 03:52:00,69.0,53.0,29.97,WSW,238,0.0,2.0,56,0.00,,,0.00,,2013-09-27 08:52:00,
2013-09-27 04:02:00,69.0,53.0,29.97,WSW,238,0.0,2.0,56,0.00,,,0.00,,2013-09-27 09:02:00,
2013-09-27 04:12:00,69.0,53.0,29.97,WSW,238,0.0,2.0,56,0.00,,,0.00,,2013-09-27 09:12:00,
2013-09-27 04:22:00,69.0,53.0,29.97,SSW,198,3.0,9.0,57,0.00,,,0.00,,2013-09-27 09:22:00,
2013-09-27 04:33:00,69.0,53.0,29.97,SSW,198,3.0,9.0,57,0.00,,,0.00,,2013-09-27 09:33:00,
2013-09-27 04:54:00,69.0,54.0,29.97,WNW,284,1.0,5.0,59,0.00,,,0.00,,2013-09-27 09:54:00,
2013-09-27 05:03:00,69.0,54.0,29.97,WNW,284,1.0,5.0,59,0.00,,,0.00,,2013-09-27 10:03:00,
2013-09-27 05:23:00,67.0,54.0,29.97,WNW,283,0.0,7.0,62,0.00,,,0.00,,2013-09-27 10:23:00,
2013-09-27 05:33:00,67.0,54.0,29.97,WNW,283,0.0,7.0,62,0.00,,,0.00,,2013-09-27 10:33:00,
2013-09-27 05:52:00,67.0,54.0,29.98,NW,311,1.0,8.0,63,0.00,,,0.00,,2013-09-27 10:52:00,
2013-09-27 06:02:00,67.0,54.0,29.98,NW,311,1.0,8.0,63,0.00,,,0.00,,2013-09-27 11:02:00,
2013-09-27 06:12:00,67.0,54.0,29.98,NW,311,1.0,8.0,63,0.00,,,0.00,,2013-09-27 11:12:00,
2013-09-27 06:22:00,66.0,53.0,29.98,SSW,193,0.0,1.0,62,0.00,,,0.00,,2013-09-27 11:22:00,
2013-09-27 06:33:00,66.0,53.0,29.98,SSW,193,0.0,1.0,62,0.00,,,0.00,,2013-09-27 11:33:00,
2013-09-27 06:52:00,66.0,53.0,29.98,WNW,283,1.0,4.0,63,0.00,,,0.00,,2013-09-27 11:52:00,
2013-09-27 07:02:00,66.0,53.0,29.98,WNW,283,1.0,4.0,63,0.00,,,0.00,,2013-09-27 12:02:00,
2013-09-27 07:12:00,66.0,53.0,29.98,WNW,283,1.0,4.0,63,0.00,,,0.00,,2013-09-27 12:12:00,
2013-09-27 07:21:00,66.0,53.0,29.98,West,265,1.0,7.0,62,0.00,,,0.00,,2013-09-27 12:21:00,
2013-09-27 07:32:00,66.0,53.0,29.98,West,265,1.0,7.0,62,0.00,,,0.00,,2013-09-27 12:32:00,
2013-09-27 07:52:00,66.0,53.0,29.99,WSW,241,0.0,3.0,63,0.00,,,0.00,,2013-09-27 12:52:00,
2013-09-27 08:11:00,66.0,53.0,29.99,WSW,241,0.0,3.0,63,0.00,,,0.00,,2013-09-27 13:11:00,
2013-09-27 08:22:00,66.0,53.0,30.00,SSW,213,0.0,4.0,63,0.00,,,0.00,,2013-09-27 13:22:00,
2013-09-27 08:32:00,66.0,53.0,30.00,SSW,213,0.0,4.0,63,0.00,,,0.00,,2013-09-27 13:32:00,
2013-09-27 08:53:00,67.0,53.0,30.00,SW,215,1.0,6.0,61,0.00,,,0.00,,2013-09-27 13:53:00,
2013-09-27 09:02:00,67.0,53.0,30.00,SW,215,1.0,6.0,61,0.00,,,0.00,,2013-09-27 14:02:00,
2013-09-27 09:11:00,67.0,53.0,30.00,SW,215,1.0,6.0,61,0.00,,,0.00,,2013-09-27 14:11:00,
2013-09-27 09:22:00,69.0,54.0,30.01,West,267,1.0,5.0,59,0.00,,,0.00,,2013-09-27 14:22:00,
2013-09-27 09:32:00,69.0,54.0,30.01,West,267,1.0,5.0,59,0.00,,,0.00,,2013-09-27 14:32:00,
2013-09-27 09:52:00,72.0,55.0,30.01,West,270,2.0,7.0,55,0.00,,,0.00,,2013-09-27 14:52:00,
2013-09-27 10:02:00,72.0,55.0,30.01,West,270,2.0,7.0,55,0.00,,,0.00,,2013-09-27 15:02:00,
2013-09-27 10:21:00,76.0,54.0,30.01,SSW,203,4.0,12.0,47,0.00,,,0.00,,2013-09-27 15:21:00,
2013-09-27 10:33:00,76.0,54.0,30.01,SSW,203,4.0,12.0,47,0.00,,,0.00,,2013-09-27 15:33:00,
2013-09-27 10:54:00,77.0,55.0,30.02,SSW,192,4.0,16.0,46,0.00,,,0.00,,2013-09-27 15:54:00,
2013-09-27 11:04:00,77.0,55.0,30.02,SSW,192,4.0,16.0,46,0.00,,,0.00,,2013-09-27 16:04:00,
2013-09-27 11:24:00,78.0,55.0,30.02,SSW,204,7.0,16.0,45,0.00,,,0.00,,2013-09-27 16:24:00,
2013-09-27 11:34:00,78.0,55.0,30.02,SSW,204,7.0,16.0,45,0.00,,,0.00,,2013-09-27 16:34:00,
2013-09-27 11:53:00,80.0,55.0,30.01,SSW,200,5.0,15.0,43,0.00,,,0.00,,2013-09-27 16:53:00,
2013-09-27 12:03:00,80.0,55.0,30.01,SSW,200,5.0,15.0,43,0.00,,,0.00,,2013-09-27 17:03:00,
2013-09-27 12:23:00,81.0,55.0,30.01,SSW,192,9.0,16.0,41,0.00,,,0.00,,2013-09-27 17:23:00,
2013-09-27 12:34:00,81.0,55.0,30.01,SSW,192,9.0,16.0,41,0.00,,,0.00,,2013-09-27 17:34:00,
2013-09-27 12:52:00,84.0,57.0,29.99,SSE,159,4.0,14.0,40,0.00,,,0.00,,2013-09-27 17:52:00,
2013-09-27 13:02:00,84.0,57.0,29.99,SSE,159,4.0,14.0,40,0.00,,,0.00,,2013-09-27 18:02:00,
2013-09-27 13:13:00,84.0,57.0,29.99,SSE,159,4.0,14.0,40,0.00,,,0.00,,2013-09-27 18:13:00,
2013-09-27 13:21:00,85.0,55.0,29.99,ESE,123,8.0,17.0,36,0.00,,,0.00,,2013-09-27 18:21:00,
2013-09-27 13:33:00,85.0,55.0,29.99,ESE,123,8.0,17.0,36,0.00,,,0.00,,2013-09-27 18:33:00,
2013-09-27 13:52:00,85.0,55.0,29.97,ESE,123,6.0,19.0,36,0.00,,,0.00,,2013-09-27 18:52:00,
2013-09-27 14:02:00,85.0,55.0,29.97,ESE,123,6.0,19.0,36,0.00,,,0.00,,2013-09-27 19:02:00,
2013-09-27 14:12:00,85.0,55.0,29.97,ESE,123,6.0,19.0,36,0.00,,,0.00,,2013-09-27 19:12:00,
2013-09-27 14:22:00,86.0,56.0,29.96,SSE,159,6.0,23.0,36,0.00,,,0.00,,2013-09-27 19:22:00,
2013-09-27 14:32:00,86.0,56.0,29.96,SSE,159,6.0,23.0,36,0.00,,,0.00,,2013-09-27 19:32:00,
2013-09-27 14:53:00,86.0,55.0,29.96,SSE,168,11.0,22.0,35,0.00,,,0.00,,2013-09-27 19:53:00,
2013-09-27 15:03:00,86.0,55.0,29.96,SSE,168,11.0,22.0,35,0.00,,,0.00,,2013-09-27 20:03:00,
2013-09-27 15:22:00,86.0,57.0,29.94,South,190,5.0,19.0,37,0.00,,,0.00,,2013-09-27 20:22:00,
2013-09-27 15:32:00,86.0,57.0,29.94,South,190,5.0,19.0,37,0.00,,,0.00,,2013-09-27 20:32:00,
2013-09-27 15:43:00,86.0,57.0,29.94,South,190,5.0,19.0,37,0.00,,,0.00,,2013-09-27 20:43:00,
2013-09-27 15:52:00,87.0,56.0,29.93,WSW,244,5.0,16.0,35,0.00,,,0.00,,2013-09-27 20:52:00,
2013-09-27 16:02:00,87.0,56.0,29.93,WSW,244,5.0,16.0,35,0.00,,,0.00,,2013-09-27 21:02:00,
2013-09-27 16:21:00,84.0,56.0,29.93,South,186,4.0,18.0,38,0.00,,,0.00,,2013-09-27 21:21:00,
2013-09-27 16:33:00,84.0,56.0,29.93,South,186,4.0,18.0,38,0.00,,,0.00,,2013-09-27 21:33:00,
2013-09-27 16:54:00,83.0,54.0,29.93,South,187,3.0,19.0,37,0.00,,,0.00,,2013-09-27 21:54:00,
2013-09-27 17:04:00,83.0,54.0,29.93,South,187,3.0,19.0,37,0.00,,,0.00,,2013-09-27 22:04:00,
2013-09-27 17:24:00,84.0,55.0,29.92,SSW,196,7.0,17.0,37,0.00,,,0.00,,2013-09-27 22:24:00,
2013-09-27 17:34:00,84.0,55.0,29.92,SSW,196,7.0,17.0,37,0.00,,,0.00,,2013-09-27 22:34:00,
2013-09-27 17:53:00,83.0,55.0,29.93,SSE,165,7.0,17.0,39,0.00,,,0.00,,2013-09-27 22:53:00,
2013-09-27 18:03:00,83.0,55.0,29.93,SSE,165,7.0,17.0,39,0.00,,,0.00,,2013-09-27 23:03:00,
2013-09-27 18:22:00,82.0,57.0,29.93,South,173,4.0,12.0,43,0.00,,,0.00,,2013-09-27 23:22:00,
2013-09-27 18:34:00,82.0,57.0,29.93,South,173,4.0,12.0,43,0.00,,,0.00,,2013-09-27 23:34:00,
2013-09-27 18:53:00,80.0,56.0,29.92,SSE,153,0.0,10.0,44,0.00,,,0.00,,2013-09-27 23:53:00,
2013-09-27 19:02:00,80.0,56.0,29.92,SSE,153,0.0,10.0,44,0.00,,,0.00,,2013-09-28 00:02:00,
2013-09-27 19:12:00,80.0,56.0,29.92,SSE,153,0.0,10.0,44,0.00,,,0.00,,2013-09-28 00:12:00,
2013-09-27 19:22:00,79.0,56.0,29.92,SSE,148,3.0,10.0,45,0.00,,,0.00,,2013-09-28 00:22:00,
2013-09-27 19:32:00,79.0,56.0,29.92,SSE,148,3.0,10.0,45,0.00,,,0.00,,2013-09-28 00:32:00,
2013-09-27 19:42:00,79.0,56.0,29.92,SSE,148,3.0,10.0,45,0.00,,,0.00,,2013-09-28 00:42:00,
2013-09-27 19:52:00,74.0,59.0,29.94,South,175,3.0,11.0,59,0.01,,,0.01,,2013-09-28 00:52:00,
2013-09-27 20:01:00,74.0,59.0,29.94,South,175,3.0,11.0,59,0.01,,,0.01,,2013-09-28 01:01:00,
2013-09-27 20:21:00,73.0,57.0,29.94,SSE,148,0.0,2.0,58,0.01,,,0.01,,2013-09-28 01:21:00,
2013-09-27 20:32:00,73.0,57.0,29.94,SSE,148,0.0,2.0,58,0.01,,,0.01,,2013-09-28 01:32:00,
2013-09-27 20:42:00,73.0,57.0,29.94,SSE,148,0.0,2.0,58,0.01,,,0.01,,2013-09-28 01:42:00,
2013-09-27 20:52:00,73.0,57.0,29.95,SSE,158,0.0,2.0,58,0.00,,,0.01,,2013-09-28 01:52:00,
2013-09-27 21:03:00,73.0,57.0,29.95,SSE,158,0.0,2.0,58,0.00,,,0.01,,2013-09-28 02:03:00,
2013-09-27 21:22:00,71.0,59.0,29.96,SSE,158,0.0,1.0,65,0.00,,,0.01,,2013-09-28 02:22:00,
2013-09-27 21:32:00,71.0,59.0,29.96,SSE,158,0.0,1.0,65,0.00,,,0.01,,2013-09-28 02:32:00,
2013-09-27 21:53:00,69.0,59.0,29.95,SSE,164,0.0,1.0,70,0.00,,,0.01,,2013-09-28 02:53:00,
2013-09-27 22:03:00,69.0,59.0,29.95,SSE,164,0.0,1.0,70,0.00,,,0.01,,2013-09-28 03:03:00,
2013-09-27 22:22:00,69.0,61.0,29.96,South,169,0.0,2.0,75,0.00,,,0.01,,2013-09-28 03:22:00,
2013-09-27 22:34:00,69.0,61.0,29.96,South,169,0.0,2.0,75,0.00,,,0.01,,2013-09-28 03:34:00,
2013-09-27 22:55:00,70.0,62.0,29.97,ENE,76,1.0,3.0,75,0.00,,,0.01,,2013-09-28 03:55:00,
2013-09-27 23:04:00,70.0,62.0,29.97,ENE,76,1.0,3.0,75,0.00,,,0.01,,2013-09-28 04:04:00,
2013-09-27 23:25:00,69.0,62.0,29.97,ENE,76,0.0,2.0,78,0.00,,,0.01,,2013-09-28 04:25:00,
2013-09-27 23:34:00,69.0,62.0,29.97,ENE,76,0.0,2.0,78,0.00,,,0.01,,2013-09-28 04:34:00,
2013-09-27 23:43:00,69.0,62.0,29.97,ENE,76,0.0,2.0,78,0.00,,,0.01,,2013-09-28 04:43:00,
2013-09-27 23:54:00,68.0,61.0,29.98,WNW,291,0.0,2.0,79,0.00,,,0.01,,2013-09-28 04:54:00,